Regional Weather Roundup
Issued by NWS

Home | Current Version | Previous Version | Text Only | Print | Product List | Glossary Off
Versions: 1 2 3 4 5 6 7 8 9 10 11 12 13 14 15 16 17 18 19 20 21 22 23 24 25 26 27 28 29 30 31 32 33 34 35 36 37 38 39 40 41 42 43 44 45 46 47 48 49 50

000
ASUS43 KBIS 280310
RWRND

NORTH DAKOTA REGIONAL WEATHER ROUNDUP
NATIONAL WEATHER SERVICE BISMARCK ND
1000 PM CDT WED MAY 27 2015

NOTE: "FAIR" INDICATES FEW OR NO CLOUDS BELOW 12,000 FEET WITH NO
SIGNIFICANT WEATHER AND/OR OBSTRUCTIONS TO VISIBILITY.


NDZ001>003-009>011-017-280400-
NORTHWEST NORTH DAKOTA

CITY           SKY/WX    TMP DP  RH WIND       PRES   REMARKS
WILLISTON      CLOUDY    63  53  70 SE8       29.91R
MINOT          CLOUDY    63  54  72 SW5       29.94R
MINOT AFB      CLOUDY    63  60  93 SW6       29.92S
$$

NDZ018>021-031>035-040>046-280400-
SOUTHWEST NORTH DAKOTA

CITY           SKY/WX    TMP DP  RH WIND       PRES   REMARKS
BISMARCK       CLOUDY    65  56  72 NW15      29.98R
DICKINSON      CLOUDY    56  55  97 SE9       29.90F
GARRISON         N/A     60  57  89 CALM      29.96R
HETTINGER ARPT CLOUDY    54  52  93 CALM      29.95R
$$

NDZ004>008-012>016-024-026-027-054-280400-
NORTHEAST NORTH DAKOTA

CITY           SKY/WX    TMP DP  RH WIND       PRES   REMARKS
GRAND FORKS    MOCLDY    62  51  67 NW3       29.98R
GRND FRKS AFB  CLOUDY    60  49  68 NW2       29.99R
DEVILS LAKE    CLOUDY    66  48  52 E13       29.96R
$$

NDZ022-023-025-028>030-036>039-047>053-280400-
SOUTHEAST NORTH DAKOTA

CITY           SKY/WX    TMP DP  RH WIND       PRES   REMARKS
FARGO          CLOUDY    72  53  51 NW16      29.99R
JAMESTOWN      MOCLDY    66  54  65 E18       29.95S
$$




USA.gov is the U.S. government's official web portal to all federal, state and local government web resources and services.